Duluth, MN

10:41 AM CDT on September 22, 2017 (GMT -0500)
Duluth International

Weather History for KDLH - September, 2014

Change the Weather History Date:

Thursday, September 4, 2014

  Actual Average Record
Temperature  
Mean Temperature 68 °F 60 °F  
Max Temperature 76 °F 70 °F 89 °F (1948)
Min Temperature 59 °F 51 °F 36 °F (1918)
Degree Days  
Heating Degree Days 0 6  
Month to date heating degree days 2 22  
Since 1 July heating degree days 79 171  
Cooling Degree Days 3 1  
Month to date cooling degree days 4 4  
Year to date cooling degree days 174 194  
Growing Degree Days 17 (Base 50)    
Moisture  
Dew Point 59 °F    
Average Humidity 79    
Maximum Humidity 93    
Minimum Humidity 64    
Precipitation  
Precipitation 0.15 in 0.14 in 1.60 in (1911)
Month to date precipitation 0.40 0.54  
Year to date precipitation 25.35 21.24  
Snow  
Snow 0.00 in 0.00 in 0.00 in (2002)
Month to date snowfall 0.0 0.0  
Since 1 July snowfall 0.0 0.0  
Since 1 September snowfall 0.0 0.0  
Snow Depth 0.00 in    
Sea Level Pressure  
Sea Level Pressure 29.74 in    
Wind  
Wind Speed 11 mph (ESE)    
Max Wind Speed 30 mph    
Max Gust Speed 38 mph    
Visibility 10 miles    
Events Rain , Thunderstorm    
T = Trace of Precipitation, MM = Missing Value Source: NWS Daily Summary

Daily Weather History Graph

Daily Weather History Graph

Search for Another Location

Airport or City:

Trip Planner

Search our weather history database for the weather conditions in past years. The results will help you decide how hot, cold, wet, or windy it might be!

Date:

Astronomy

Sep. 04, 2014 Rise Set
Actual Time 6:32 AM CDT 7:42 PM CDT
Civil Twilight 6:01 AM CDT 8:13 PM CDT
Nautical Twilight 5:23 AM CDT 8:50 PM CDT
Astronomical Twilight 4:43 AM CDT 9:30 PM CDT
Moon 4:31 PM CDT (9/4) 1:11 AM CDT (9/4)
Length of Visible Light 14h 12m
Length of Day
13h 10m
Waxing Gibbous, 74% of the Moon is Illuminated
Sep 4
Waxing Gibbous
Sep 8
Full
Sep 15
Last Quarter
Sep 24
New
Oct 1
First Quarter

Hourly Weather History & Observations

Time (CDT) Temp. Dew Point Humidity Pressure Visibility Wind Dir Wind Speed Gust Speed Precip Events Conditions
12:55 AM 59.0 °F 55.9 °F 90% 29.79 in 10.0 mi ESE 3.5 mph - N/A   Mostly Cloudy
1:55 AM 61.0 °F 57.0 °F 87% 29.79 in 10.0 mi ENE 3.5 mph - N/A   Mostly Cloudy
2:55 AM 60.1 °F 57.0 °F 90% 29.79 in 10.0 mi ESE 8.1 mph - N/A   Mostly Cloudy
3:55 AM 60.1 °F 57.0 °F 90% 29.75 in 10.0 mi SE 10.4 mph - N/A   Clear
4:31 AM 60.1 °F 57.0 °F 90% 29.73 in 10.0 mi ESE 9.2 mph - N/A   Scattered Clouds
4:41 AM 60.1 °F 57.0 °F 90% 29.72 in 10.0 mi East 8.1 mph - N/A   Mostly Cloudy
4:55 AM 60.1 °F 57.0 °F 90% 29.73 in 10.0 mi East 9.2 mph - N/A   Mostly Cloudy
5:55 AM 61.0 °F 57.0 °F 87% 29.78 in 10.0 mi NNE 8.1 mph - N/A   Mostly Cloudy
6:03 AM 60.8 °F 57.2 °F 88% 29.79 in 10.0 mi North 6.9 mph - N/A   Mostly Cloudy
6:14 AM 61.0 °F 57.0 °F 87% 29.79 in 10.0 mi NNE 6.9 mph - N/A   Mostly Cloudy
6:42 AM 61.0 °F 57.0 °F 87% 29.79 in 10.0 mi ENE 6.9 mph - 0.00 in Rain , Thunderstorm Light Thunderstorms and Rain
6:55 AM 61.0 °F 57.0 °F 87% 29.80 in 10.0 mi NE 8.1 mph - 0.00 in Rain , Thunderstorm Light Thunderstorms and Rain
7:02 AM 61.0 °F 57.0 °F 87% 29.81 in 10.0 mi NE 8.1 mph - 0.00 in Thunderstorm Thunderstorm
7:55 AM 61.0 °F 57.0 °F 87% 29.85 in 10.0 mi North 8.1 mph - 0.02 in Rain , Thunderstorm Light Thunderstorms and Rain
8:44 AM 63.0 °F 59.0 °F 87% 29.79 in 10.0 mi NE 18.4 mph - 0.12 in Rain Light Rain
8:55 AM 64.0 °F 59.0 °F 84% 29.70 in 10.0 mi ENE 25.3 mph 29.9 mph 0.12 in Rain Light Rain
9:23 AM 64.0 °F 57.9 °F 80% 29.66 in 10.0 mi East 17.3 mph 24.2 mph 0.01 in   Mostly Cloudy
9:55 AM 62.1 °F 57.9 °F 86% 29.68 in 10.0 mi ESE 20.7 mph 27.6 mph 0.01 in   Scattered Clouds
9:58 AM 61.0 °F 57.9 °F 90% 29.68 in 10.0 mi ESE 19.6 mph 27.6 mph N/A   Mostly Cloudy
10:06 AM 61.0 °F 59.0 °F 93% 29.68 in 1.5 mi East 26.5 mph 33.4 mph N/A   Mostly Cloudy
10:24 AM 61.0 °F 59.0 °F 93% 29.68 in 9.0 mi East 24.2 mph 35.7 mph N/A   Overcast
10:55 AM 62.1 °F 59.0 °F 90% 29.68 in 10.0 mi East 20.7 mph 27.6 mph N/A   Overcast
11:26 AM 66.0 °F 60.1 °F 81% 29.69 in 10.0 mi ESE 17.3 mph 24.2 mph N/A   Scattered Clouds
11:55 AM 68.0 °F 60.1 °F 76% 29.73 in 10.0 mi SE 17.3 mph 26.5 mph N/A   Partly Cloudy
12:55 PM 71.1 °F 61.0 °F 70% 29.71 in 10.0 mi SSE 10.4 mph 19.6 mph N/A   Partly Cloudy
1:55 PM 73.9 °F 62.1 °F 66% 29.70 in 10.0 mi South 13.8 mph 18.4 mph N/A   Partly Cloudy
2:55 PM 75.0 °F 63.0 °F 66% 29.70 in 10.0 mi South 9.2 mph - N/A   Partly Cloudy
3:46 PM 73.9 °F 64.0 °F 71% 29.72 in 10.0 mi South 8.1 mph - N/A   Mostly Cloudy
3:55 PM 73.0 °F 63.0 °F 71% 29.72 in 10.0 mi SSE 9.2 mph - N/A   Overcast
4:55 PM 64.9 °F 60.1 °F 84% 29.73 in 10.0 mi ESE 10.4 mph - N/A   Overcast
5:19 PM 63.0 °F 60.1 °F 90% 29.72 in 10.0 mi SE 10.4 mph - N/A   Overcast
5:55 PM 63.0 °F 60.1 °F 90% 29.71 in 4.0 mi ESE 8.1 mph - N/A   Overcast
6:55 PM 63.0 °F 59.0 °F 87% 29.72 in 7.0 mi ESE 9.2 mph - N/A   Overcast
7:11 PM 63.0 °F 59.0 °F 87% 29.72 in 10.0 mi SE 6.9 mph - N/A   Overcast
7:50 PM 62.6 °F 59.0 °F 88% 29.75 in 10.0 mi SE 9.2 mph - N/A   Overcast
7:55 PM 63.0 °F 59.0 °F 87% 29.76 in 10.0 mi SE 6.9 mph - N/A   Overcast
8:28 PM 63.0 °F 59.0 °F 87% 29.75 in 10.0 mi Calm Calm - N/A   Mostly Cloudy
8:55 PM 62.6 °F 59.0 °F 88% 29.76 in 10.0 mi West 4.6 mph - N/A   Mostly Cloudy
9:55 PM 64.0 °F 61.0 °F 90% 29.78 in 10.0 mi WSW 6.9 mph - N/A   Scattered Clouds
10:55 PM 64.0 °F 61.0 °F 90% 29.79 in 10.0 mi West 9.2 mph - N/A   Partly Cloudy
11:55 PM 64.9 °F 55.0 °F 70% 29.79 in 10.0 mi WNW 13.8 mph 21.9 mph N/A   Scattered Clouds